[[{"header":{"parameterUnit":"m.s-1","parameterCategory":1,"la1":30.2991,"la2":30.254,"lo1":-89.0895,"lo2":-89.0444,"dy":0.0017,"dx":0.0017,"nx":28,"ny":28,"refTime":"2025-03-12T03:00:00:Z","depth":0,"parameterNumber":2,"parameterNumberName":"U-component_of_WINDS"},"data":[0,0,0,0,0,0,0,0,0,0,0,0,0,0,0,0,0,0,0,0,0,0,0,0,0,0,0,0,0,0,0,0,0,0,0,0,0,0,0,0,0,0,0,0,0,0,0,0,0,0,0,0,0,0,0,0,0,0,0.4544,0.4544,0,0.4618,0.4619,0.462,0.464,0.4639,0.4639,0.4639,0.4718,0.472,0.4723,0,0,0,0,0,0,0,0,0,0,0,0,0,0.4421,0.4423,0.4543,0.4544,0.4545,0.4618,0.4619,0.462,0.464,0.4639,0.4639,0.4638,0.4717,0.472,0.4723,0,0,0,0,0,0,0,0,0,0,0,0,0,0.4483,0.4424,0.4543,0.4564,0.4567,0.4618,0.4619,0.4621,0.464,0.4639,0.4639,0.4638,0.4716,0.472,0.4723,0.476,0,0,0.4735,0.4737,0,0,0,0,0,0,0,0,0.4479,0.4487,0.456,0.4563,0.4566,0.4619,0.4605,0.4668,0.464,0.4612,0.4639,0.4638,0.4686,0.4692,0.4707,0.4764,0.4768,0.4735,0.4738,0.4739,0.474,0,0,0,0,0,0,0,0.4475,0.4484,0.4573,0.4561,0.4564,0.4571,0.4579,0.4617,0.4652,0.4615,0.4616,0.4625,0.4687,0.4704,0.4709,0.4769,0.4735,0.4739,0.4741,0.4742,0.4862,0.4863,0,0,0,0,0,0,0.4467,0.4481,0.4571,0.4575,0.452,0.4573,0.4582,0.4603,0.4652,0.4658,0.4625,0.4625,0.4698,0.4705,0.4712,0.4761,0.4739,0.4743,0.4745,0.4861,0.4862,0.4863,0,0,0,0,0,0,0.4464,0.4475,0.4568,0.4529,0.4541,0.4576,0.4599,0.4604,0.4621,0.466,0.4666,0.4636,0.4697,0.4707,0.4749,0.4764,0.4744,0.4748,0.486,0.4862,0.4863,0.4857,0,0,0,0,0,0,0.446,0.4474,0.4487,0.4529,0.4543,0.4602,0.46,0.4606,0.4627,0.4628,0.4671,0.4678,0.4698,0.4743,0.4752,0.4769,0.4751,0.4859,0.4861,0.4862,0.4856,0.4858,0.486,0,0,0,0,0,0.4456,0.4483,0.4488,0.4499,0.456,0.4603,0.4611,0.4633,0.4628,0.4643,0.4668,0.4676,0.476,0.4747,0.4758,0.4776,0.4858,0.486,0.4862,0.4855,0.4858,0.486,0,0,0,0,0,0,0.4442,0.4488,0.4495,0.4535,0.4565,0.4606,0.4625,0.4634,0.4666,0.4666,0.4692,0.4702,0.4742,0.4763,0.4747,0.4815,0.481,0.4814,0.48,0.4803,0.4805,0.48,0.4754,0,0,0,0,0,0.4444,0.4474,0.4512,0.4545,0.4559,0.4589,0.4609,0.4623,0.4655,0.4668,0.4696,0.4728,0.4761,0.4783,0.4816,0.4859,0.487,0.4876,0.4878,0.488,0.4884,0.491,0.4914,0.487,0.487,0.487,0,0,0.4448,0.4477,0.4494,0.4543,0.4567,0.4599,0.46,0.4633,0.4657,0.4673,0.4715,0.4736,0.4774,0.4816,0.4837,0.4835,0.4898,0.4882,0.4883,0.4886,0.4913,0.4917,0.492,0.4871,0.4871,0.4871,0,0,0.4471,0.4495,0.4526,0.455,0.4588,0.4608,0.4615,0.4655,0.467,0.4712,0.4726,0.4755,0.4812,0.4839,0.486,0.4895,0.4904,0.4904,0.4915,0.494,0.4944,0.4947,0.4962,0.4966,0.4908,0.4908,0.4908,0,0.4472,0.4519,0.454,0.4573,0.4595,0.461,0.4643,0.4666,0.4712,0.4728,0.4725,0.4798,0.4824,0.4874,0.4883,0.4899,0.4909,0.49,0.4941,0.4945,0.4948,0.4962,0.4968,0.4908,0.4908,0.4908,0.4908,0,0.4519,0.4551,0.4571,0.4616,0.464,0.4672,0.4699,0.4721,0.4733,0.4754,0.4798,0.483,0.4871,0.4883,0.4895,0.4936,0.4934,0.4936,0.4931,0.4952,0.4966,0.4971,0.4908,0.4908,0.4908,0.4908,0,0,0.4536,0.4592,0.4599,0.4621,0.4663,0.469,0.4723,0.4762,0.4782,0.4813,0.4844,0.4892,0.4894,0.4918,0.4933,0.4955,0.4984,0.4955,0.4956,0.4961,0.5033,0.5033,0.5039,0.499,0.4991,0.4992,0.5031,0,0.4566,0.4626,0.4647,0.4697,0.4728,0.4744,0.4774,0.4804,0.4825,0.4855,0.4878,0.4913,0.4912,0.4927,0.4949,0.4976,0.4999,0.4973,0.502,0.5022,0.5012,0.5046,0.5046,0.5081,0.5036,0.5037,0.5038,0,0.4609,0.4642,0.4695,0.4735,0.4749,0.4775,0.4814,0.4843,0.4878,0.4892,0.4919,0.4933,0.4971,0.4962,0.5015,0.4997,0.5017,0.5033,0.5035,0.5042,0.5032,0.5056,0.5093,0.5099,0.5046,0.5046,0.5045,0,0.4619,0.4676,0.4716,0.4733,0.4781,0.4799,0.482,0.4855,0.4877,0.4912,0.4927,0.4965,0.4986,0.5016,0.5041,0.5032,0.5093,0.5086,0.5107,0.5107,0.5121,0.512,0.5164,0.513,0.513,0.513,0.513,0,0.4652,0.4684,0.4721,0.4746,0.4783,0.4807,0.4844,0.4866,0.4897,0.4927,0.4943,0.4971,0.5001,0.5034,0.5054,0.5096,0.5105,0.5118,0.5124,0.5118,0.5117,0.5134,0.5133,0.5131,0.5131,0.5131,0.5131,0,0.467,0.4695,0.474,0.4782,0.4793,0.4819,0.4856,0.4881,0.4902,0.4941,0.4951,0.4985,0.5025,0.5052,0.5103,0.5116,0.5163,0.5166,0.5151,0.5154,0.5174,0.5173,0.5232,0.5242,0.52,0.52,0.52,0,0.469,0.4715,0.476,0.4781,0.4802,0.4836,0.486,0.4885,0.4909,0.4952,0.4973,0.5013,0.5047,0.511,0.514,0.5179,0.5186,0.5204,0.5192,0.5186,0.5189,0.5188,0.5192,0.5206,0.5206,0.5207,0.5207,0,0.4724,0.4735,0.4768,0.4807,0.4834,0.4866,0.4897,0.4914,0.4945,0.4971,0.5012,0.5038,0.509,0.5131,0.5174,0.5197,0.5208,0.521,0.5218,0.5213,0.5204,0.5212,0.5158,0.5209,0.5209,0.5209,0.5209,0.5208,0.4745,0.4769,0.4805,0.4842,0.4868,0.4897,0.4924,0.4949,0.4983,0.5027,0.504,0.5083,0.5119,0.5177,0.5201,0.5236,0.5235,0.5245,0.5248,0.5251,0.5252,0.5197,0.5244,0.5243,0.5243,0.5243,0.5243,0,0.4781,0.4805,0.4839,0.4883,0.4912,0.4919,0.4954,0.4979,0.5016,0.5049,0.5082,0.513,0.517,0.5204,0.5246,0.5267,0.5274,0.5278,0.5277,0.5283,0.5249,0.524,0.5272,0.5272,0.5272,0.5272,0.5272,0.5272,0.4804,0.4846,0.4862,0.4918,0.4942,0.4983,0.5004,0.5032,0.5058,0.5111,0.5144,0.5165,0.5199,0.5244,0.5282,0.529,0.5306,0.531,0.532,0.5288,0.5285,0.5282,0.5273,0.5312,0.5312,0.5351,0.5352,0.5352]},{"header":{"parameterUnit":"m.s-1","parameterCategory":1,"la1":30.2991,"la2":30.254,"lo1":-89.0895,"lo2":-89.0444,"dy":0.0017,"dx":0.0017,"nx":28,"ny":28,"refTime":"2025-03-12T03:00:00:Z","depth":0,"parameterNumber":3,"parameterNumberName":"V-component_of_WINDS"},"data":[0,0,0,0,0,0,0,0,0,0,0,0,0,0,0,0,0,0,0,0,0,0,0,0,0,0,0,0,0,0,0,0,0,0,0,0,0,0,0,0,0,0,0,0,0,0,0,0,0,0,0,0,0,0,0,0,0,0,3.6266,3.6266,0,3.6276,3.6276,3.6276,3.6255,3.6255,3.6254,3.6253,3.626,3.6261,3.6262,0,0,0,0,0,0,0,0,0,0,0,0,0,3.6227,3.6228,3.6266,3.6266,3.6267,3.6276,3.6276,3.6276,3.6255,3.6254,3.6254,3.6253,3.626,3.6261,3.6262,0,0,0,0,0,0,0,0,0,0,0,0,0,3.6241,3.6228,3.6266,3.6257,3.6257,3.6276,3.6276,3.6276,3.6255,3.6254,3.6253,3.6253,3.6259,3.6261,3.6262,3.629,0,0,3.6266,3.6266,0,0,0,0,0,0,0,0,3.624,3.6243,3.6258,3.6258,3.6257,3.6264,3.6265,3.6281,3.6256,3.6256,3.6253,3.6252,3.6262,3.6263,3.6267,3.629,3.629,3.6266,3.6266,3.6267,3.6267,0,0,0,0,0,0,0,3.6239,3.6242,3.627,3.6259,3.6258,3.6252,3.6253,3.6268,3.6264,3.6256,3.6254,3.6256,3.6261,3.6266,3.6267,3.629,3.6266,3.6267,3.6267,3.6268,3.6339,3.634,0,0,0,0,0,0,3.624,3.6241,3.627,3.627,3.6246,3.6254,3.6255,3.6262,3.6264,3.6263,3.6257,3.6255,3.6264,3.6265,3.6267,3.6301,3.6267,3.6268,3.6269,3.6338,3.6339,3.6341,0,0,0,0,0,0,3.6239,3.6243,3.6269,3.6256,3.6258,3.6255,3.6264,3.6263,3.6268,3.6265,3.6264,3.6262,3.6263,3.6265,3.6285,3.6301,3.6269,3.627,3.6337,3.6339,3.634,3.637,0,0,0,0,0,0,3.6238,3.6242,3.6253,3.6256,3.6259,3.6288,3.6265,3.6264,3.627,3.6268,3.627,3.6269,3.6263,3.6283,3.6286,3.6302,3.6271,3.6335,3.6338,3.634,3.6367,3.6372,3.6376,0,0,0,0,0,3.6237,3.626,3.6254,3.6257,3.6273,3.6289,3.6291,3.6284,3.6271,3.6282,3.6281,3.6269,3.6299,3.6285,3.6289,3.6305,3.6334,3.6337,3.6339,3.6365,3.6371,3.6376,0,0,0,0,0,0,3.6257,3.626,3.6253,3.6278,3.6284,3.6285,3.6299,3.629,3.6298,3.6296,3.6286,3.6287,3.6309,3.6308,3.6294,3.6333,3.6314,3.6318,3.6333,3.6339,3.6343,3.6343,3.6272,0,0,0,0,0,3.6265,3.6279,3.628,3.6301,3.6305,3.6301,3.6308,3.6303,3.6307,3.6309,3.6309,3.6313,3.6324,3.6331,3.634,3.6367,3.6368,3.638,3.6385,3.6388,3.6392,3.6408,3.6414,3.6349,3.6349,3.6349,0,0,3.628,3.6283,3.6292,3.6306,3.6309,3.6324,3.6303,3.6318,3.6329,3.6311,3.6331,3.6331,3.6335,3.6359,3.6369,3.636,3.641,3.6392,3.6395,3.6396,3.6411,3.6417,3.6423,3.6351,3.6351,3.6351,0,0,3.6316,3.6319,3.6339,3.6344,3.6351,3.6349,3.6353,3.6357,3.6357,3.6377,3.6365,3.6376,3.6394,3.6398,3.6403,3.6443,3.6433,3.6446,3.647,3.6486,3.6491,3.6496,3.6512,3.6517,3.6449,3.6449,3.6449,0,3.6334,3.6356,3.635,3.6367,3.6374,3.636,3.6381,3.6385,3.6394,3.6399,3.6388,3.6412,3.6413,3.6439,3.645,3.6453,3.6459,3.6446,3.6491,3.6496,3.65,3.6515,3.6521,3.6451,3.6451,3.6451,3.645,0,3.6379,3.6394,3.6409,3.6421,3.6429,3.6447,3.6444,3.6453,3.6447,3.6447,3.6468,3.6469,3.648,3.6486,3.6479,3.6511,3.6505,3.6493,3.6474,3.6508,3.6522,3.6527,3.6453,3.6453,3.6452,3.6452,0,0,3.6426,3.6437,3.6442,3.6449,3.6456,3.6467,3.6485,3.6498,3.6506,3.6513,3.6529,3.6545,3.6535,3.654,3.6534,3.6548,3.6582,3.6534,3.6534,3.6544,3.6619,3.6629,3.6636,3.6575,3.6576,3.6577,3.6619,0,3.6463,3.6497,3.6493,3.6525,3.654,3.6528,3.6544,3.655,3.655,3.6563,3.6562,3.6575,3.6559,3.6562,3.6575,3.6575,3.6597,3.6572,3.6589,3.659,3.659,3.6643,3.6654,3.6694,3.6625,3.6625,3.6626,0,3.6511,3.6522,3.6556,3.6564,3.657,3.6585,3.6597,3.6609,3.6616,3.6615,3.6622,3.6614,3.6633,3.6613,3.6638,3.6621,3.6628,3.6629,3.6631,3.6633,3.6611,3.6648,3.6706,3.6713,3.6634,3.6634,3.6633,0,3.6545,3.6568,3.6592,3.6598,3.6607,3.6618,3.6622,3.6628,3.6636,3.6646,3.6652,3.6663,3.667,3.6678,3.6674,3.666,3.6701,3.668,3.6701,3.6701,3.6711,3.6711,3.6772,3.6713,3.6713,3.6713,3.6713,0,3.6587,3.6609,3.6608,3.6623,3.6647,3.6643,3.6666,3.6669,3.6675,3.669,3.6679,3.6693,3.6686,3.6699,3.6696,3.6719,3.6721,3.6721,3.672,3.6723,3.6723,3.6728,3.6726,3.6715,3.6714,3.6714,3.6714,0,3.6629,3.6629,3.6655,3.6663,3.6665,3.6683,3.6689,3.6703,3.6703,3.6722,3.6726,3.6726,3.6742,3.6738,3.6754,3.6752,3.6781,3.6776,3.678,3.6779,3.6801,3.6799,3.6869,3.6878,3.6812,3.6812,3.6813,0,3.6657,3.6674,3.6684,3.6695,3.67,3.6716,3.6726,3.6722,3.6732,3.6743,3.6756,3.6771,3.6783,3.6808,3.6809,3.6822,3.6818,3.6841,3.6819,3.6822,3.682,3.682,3.6822,3.6846,3.6846,3.6847,3.6847,0,3.6706,3.6707,3.6722,3.6738,3.675,3.6761,3.6772,3.678,3.6778,3.679,3.6807,3.6816,3.6835,3.685,3.6862,3.6865,3.6856,3.6854,3.686,3.6864,3.6866,3.6867,3.6793,3.6853,3.6852,3.6852,3.6852,3.6851,3.6743,3.6759,3.677,3.6787,3.6795,3.6806,3.6821,3.6824,3.6839,3.6855,3.6851,3.6871,3.6879,3.6895,3.6899,3.6914,3.6906,3.6913,3.6916,3.6918,3.6922,3.6863,3.6916,3.6916,3.6916,3.6916,3.6916,0,3.6794,3.6801,3.6818,3.6834,3.6849,3.6841,3.6852,3.6864,3.6883,3.6892,3.6905,3.6925,3.6941,3.6943,3.6958,3.6969,3.6966,3.6974,3.6973,3.6975,3.6928,3.6922,3.6976,3.6976,3.6976,3.6976,3.6976,3.6976,3.6822,3.6849,3.6851,3.6882,3.6888,3.691,3.6917,3.6927,3.6935,3.6959,3.6973,3.6975,3.6982,3.6997,3.7011,3.7012,3.7018,3.7028,3.7027,3.6983,3.6977,3.6972,3.6967,3.7029,3.7029,3.7072,3.7073,3.7073]}]]